AAL766 KDFW-KIND

Flight info

Callsign AAL766
Flight time 1h 38m
Altitude 39000
Route ZACHH4 BSKAT JBR TINGS TERGE SMUKE3
Aircraft B738/M-SDE2E3FGHIRWXY/LB1

Departure

Time 2026-05-05 03:12
Airport Dallas Fort Worth International Airport (KDFW)

Arrival

Time 2026-05-05 04:50
Airport Indianapolis International Airport (KIND)
Time Latitude Longitude Altitude Speed Heading
2026-05-05 02:43 32.89999 -97.04224 598 ft 0 kts 188°
2026-05-05 02:57 32.90000 -97.04224 598 ft 2 kts 188°
2026-05-05 02:57 32.90022 -97.04221 598 ft 3 kts 174°
2026-05-05 02:58 32.90038 -97.04228 598 ft 3 kts 115°
2026-05-05 02:58 32.90046 -97.04250 598 ft 3 kts 109°
2026-05-05 02:58 32.90053 -97.04274 598 ft 3 kts 109°
2026-05-05 02:58 32.90063 -97.04298 598 ft 3 kts 134°
2026-05-05 02:59 32.90080 -97.04313 597 ft 3 kts 165°
2026-05-05 02:59 32.90102 -97.04315 596 ft 3 kts 188°
2026-05-05 02:59 32.90087 -97.04320 597 ft 3 kts 200°
2026-05-05 02:59 32.90080 -97.04338 597 ft 3 kts 261°
2026-05-05 03:00 32.90080 -97.04363 597 ft 3 kts 270°
2026-05-05 03:00 32.90080 -97.04386 597 ft 1 kts 270°
2026-05-05 03:03 32.90080 -97.04402 594 ft 5 kts 270°
2026-05-05 03:03 32.90080 -97.04502 597 ft 13 kts 270°
2026-05-05 03:04 32.90081 -97.04617 597 ft 14 kts 270°
2026-05-05 03:04 32.90081 -97.04717 596 ft 11 kts 280°
2026-05-05 03:04 32.90143 -97.04763 596 ft 13 kts 358°
2026-05-05 03:04 32.90211 -97.04763 596 ft 16 kts
2026-05-05 03:05 32.90375 -97.04762 596 ft 19 kts
2026-05-05 03:05 32.90460 -97.04762 596 ft 18 kts
2026-05-05 03:05 32.90582 -97.04761 596 ft 17 kts
2026-05-05 03:05 32.90699 -97.04761 596 ft 17 kts
2026-05-05 03:06 32.90811 -97.04759 597 ft 16 kts
2026-05-05 03:06 32.90902 -97.04743 600 ft 12 kts 50°
2026-05-05 03:06 32.90912 -97.04631 598 ft 16 kts 70°
2026-05-05 03:06 32.90994 -97.04582 598 ft 13 kts 39°
2026-05-05 03:07 32.91011 -97.04475 598 ft 14 kts 90°
2026-05-05 03:07 32.91010 -97.04360 619 ft 14 kts 91°
2026-05-05 03:07 32.91010 -97.04250 610 ft 13 kts 90°
2026-05-05 03:07 32.91010 -97.04125 619 ft 18 kts 90°
2026-05-05 03:08 32.91009 -97.03965 612 ft 20 kts 91°
2026-05-05 03:08 32.91007 -97.03797 603 ft 22 kts 91°
2026-05-05 03:08 32.91009 -97.03622 585 ft 24 kts 90°
2026-05-05 03:08 32.91007 -97.03445 582 ft 15 kts 90°
2026-05-05 03:09 32.91033 -97.03364 581 ft 10 kts 18°
2026-05-05 03:09 32.91115 -97.03361 581 ft 14 kts
2026-05-05 03:09 32.91220 -97.03360 581 ft 15 kts
2026-05-05 03:09 32.91323 -97.03360 581 ft 14 kts
2026-05-05 03:10 32.91421 -97.03359 580 ft 14 kts 360°
2026-05-05 03:10 32.91527 -97.03359 577 ft 14 kts 360°
2026-05-05 03:10 32.91561 -97.03298 574 ft 10 kts 88°
2026-05-05 03:10 32.91561 -97.03214 574 ft 12 kts 91°
2026-05-05 03:11 32.91560 -97.03100 574 ft 15 kts 90°
2026-05-05 03:11 32.91545 -97.02996 576 ft 12 kts 137°
2026-05-05 03:11 32.91454 -97.02988 577 ft 25 kts 180°
2026-05-05 03:11 32.91024 -97.02991 577 ft 96 kts 180°
2026-05-05 03:12 32.90148 -97.02993 583 ft 153 kts 179°
2026-05-05 03:12 32.89043 -97.02984 1201 ft 160 kts 181°
2026-05-05 03:12 32.87937 -97.02974 2042 ft 159 kts 184°
2026-05-05 03:12 32.86756 -97.02952 2433 ft 183 kts 182°
2026-05-05 03:13 32.85417 -97.02891 2723 ft 201 kts 177°
2026-05-05 03:13 32.84023 -97.02369 2990 ft 227 kts 164°
2026-05-05 03:13 32.82514 -97.01616 3467 ft 243 kts 164°
2026-05-05 03:13 32.80919 -97.00816 4078 ft 256 kts 159°
2026-05-05 03:14 32.79434 -96.99488 4702 ft 277 kts 141°
2026-05-05 03:14 32.78038 -96.97910 5508 ft 278 kts 144°
2026-05-05 03:14 32.76803 -96.96076 6143 ft 295 kts 118°
2026-05-05 03:14 32.76286 -96.93684 6720 ft 311 kts 91°
2026-05-05 03:15 32.76559 -96.91123 7462 ft 312 kts 83°
2026-05-05 03:15 32.76733 -96.88549 8241 ft 314 kts 88°
2026-05-05 03:15 32.76817 -96.85938 8957 ft 319 kts 89°
2026-05-05 03:15 32.76981 -96.83283 9627 ft 325 kts 76°
2026-05-05 03:16 32.77860 -96.80827 10303 ft 325 kts 59°
2026-05-05 03:16 32.78983 -96.78404 10573 ft 346 kts 58°
2026-05-05 03:16 32.80200 -96.75837 10877 ft 363 kts 58°
2026-05-05 03:16 32.81449 -96.73193 11462 ft 370 kts 58°
2026-05-05 03:17 32.82704 -96.70515 12223 ft 371 kts 58°
2026-05-05 03:17 32.83956 -96.67824 12972 ft 374 kts 58°
2026-05-05 03:17 32.85219 -96.65096 13679 ft 378 kts 58°
2026-05-05 03:17 32.86484 -96.62354 14335 ft 382 kts 58°
2026-05-05 03:18 32.87774 -96.59553 15028 ft 386 kts 58°
2026-05-05 03:18 32.89050 -96.56780 15709 ft 389 kts 58°
2026-05-05 03:18 32.90373 -96.53901 16432 ft 393 kts 58°
2026-05-05 03:18 32.91669 -96.51079 17097 ft 397 kts 58°
2026-05-05 03:19 32.94343 -96.45249 18400 ft 405 kts 57°
2026-05-05 03:19 32.95696 -96.42296 18975 ft 409 kts 57°
2026-05-05 03:19 32.97070 -96.39296 19488 ft 415 kts 56°
2026-05-05 03:20 32.98457 -96.36264 20019 ft 420 kts 56°
2026-05-05 03:20 32.99857 -96.33197 20589 ft 424 kts 56°
2026-05-05 03:20 33.01153 -96.30005 21142 ft 431 kts 60°
2026-05-05 03:20 33.02330 -96.26692 21657 ft 437 kts 62°
2026-05-05 03:21 33.03475 -96.23315 22140 ft 442 kts 62°
2026-05-05 03:21 33.04631 -96.19898 22619 ft 447 kts 62°
2026-05-05 03:21 33.05813 -96.16448 23129 ft 451 kts 61°
2026-05-05 03:21 33.07019 -96.12976 23568 ft 455 kts 60°
2026-05-05 03:22 33.08247 -96.09477 23985 ft 459 kts 60°
2026-05-05 03:22 33.09486 -96.05965 24449 ft 461 kts 60°
2026-05-05 03:22 33.10731 -96.02435 24879 ft 464 kts 60°
2026-05-05 03:22 33.11987 -95.98873 25279 ft 467 kts 60°
2026-05-05 03:23 33.13252 -95.95282 25673 ft 471 kts 60°
2026-05-05 03:23 33.14520 -95.91673 26068 ft 474 kts 60°
2026-05-05 03:23 33.15797 -95.88034 26456 ft 477 kts 60°
2026-05-05 03:23 33.17083 -95.84367 26831 ft 480 kts 60°
2026-05-05 03:24 33.18373 -95.80678 27209 ft 484 kts 60°
2026-05-05 03:24 33.19670 -95.76960 27576 ft 487 kts 60°
2026-05-05 03:24 33.20974 -95.73215 27934 ft 490 kts 60°
2026-05-05 03:24 33.22284 -95.69445 28288 ft 493 kts 59°
2026-05-05 03:25 33.23603 -95.65649 28580 ft 498 kts 59°
2026-05-05 03:25 33.24936 -95.61810 28976 ft 500 kts 59°
2026-05-05 03:25 33.26270 -95.57959 29325 ft 503 kts 59°
2026-05-05 03:25 33.27608 -95.54092 29654 ft 506 kts 59°
2026-05-05 03:26 33.28938 -95.50245 29948 ft 509 kts 59°
2026-05-05 03:26 33.30291 -95.46326 30212 ft 512 kts 59°
2026-05-05 03:26 33.31650 -95.42386 30497 ft 514 kts 59°
2026-05-05 03:26 33.33015 -95.38424 30767 ft 516 kts 59°
2026-05-05 03:27 33.34381 -95.34450 31024 ft 518 kts 59°
2026-05-05 03:27 33.35755 -95.30454 31287 ft 520 kts 58°
2026-05-05 03:27 33.37131 -95.26444 31552 ft 522 kts 58°
2026-05-05 03:27 33.38506 -95.22430 31861 ft 523 kts 58°
2026-05-05 03:28 33.39884 -95.18400 32228 ft 522 kts 58°
2026-05-05 03:28 33.41252 -95.14390 32610 ft 521 kts 58°
2026-05-05 03:28 33.42621 -95.10376 32957 ft 520 kts 58°
2026-05-05 03:28 33.43988 -95.06368 33269 ft 520 kts 58°
2026-05-05 03:29 33.45356 -95.02353 33590 ft 520 kts 57°
2026-05-05 03:29 33.46720 -94.98346 33907 ft 520 kts 57°
2026-05-05 03:29 33.48083 -94.94333 34209 ft 520 kts 57°
2026-05-05 03:29 33.49447 -94.90315 34439 ft 521 kts 57°
2026-05-05 03:30 33.50813 -94.86289 34686 ft 522 kts 57°
2026-05-05 03:30 33.52176 -94.82262 34944 ft 522 kts 57°
2026-05-05 03:30 33.53538 -94.78233 35198 ft 522 kts 57°
2026-05-05 03:30 33.54898 -94.74204 35446 ft 522 kts 57°
2026-05-05 03:31 33.56260 -94.70166 35698 ft 522 kts 57°
2026-05-05 03:31 33.57617 -94.66136 35949 ft 522 kts 57°
2026-05-05 03:31 33.58974 -94.62099 36230 ft 521 kts 57°
2026-05-05 03:31 33.60325 -94.58074 36535 ft 520 kts 57°
2026-05-05 03:32 33.61670 -94.54061 36853 ft 518 kts 57°
2026-05-05 03:32 33.63022 -94.50034 36817 ft 523 kts 57°
2026-05-05 03:32 33.65734 -94.41935 36829 ft 522 kts 57°
2026-05-05 03:33 33.68410 -94.33897 36820 ft 516 kts 57°
2026-05-05 03:33 33.71072 -94.25910 36843 ft 514 kts 57°
2026-05-05 03:34 33.74197 -94.18359 36847 ft 498 kts 47°
2026-05-05 03:34 33.77768 -94.11277 36835 ft 496 kts 45°
2026-05-05 03:35 33.81328 -94.04153 36831 ft 499 kts 47°
2026-05-05 03:35 33.84814 -93.96915 36830 ft 501 kts 47°
2026-05-05 03:36 33.88279 -93.89614 36839 ft 503 kts 47°
2026-05-05 03:36 33.91753 -93.82283 36842 ft 506 kts 47°
2026-05-05 03:37 33.95244 -93.74916 36843 ft 507 kts 47°
2026-05-05 03:37 33.98736 -93.67534 36830 ft 507 kts 47°
2026-05-05 03:38 34.02196 -93.60206 36829 ft 506 kts 47°
2026-05-05 03:38 34.05796 -93.52992 36831 ft 494 kts 41°
2026-05-05 03:39 34.09931 -93.46511 36847 ft 484 kts 37°
2026-05-05 03:39 34.14176 -93.40218 36860 ft 484 kts 37°
2026-05-05 03:40 34.18369 -93.33846 36906 ft 486 kts 38°
2026-05-05 03:40 34.22523 -93.27383 36879 ft 487 kts 38°
2026-05-05 03:41 34.26653 -93.20890 36872 ft 488 kts 39°
2026-05-05 03:41 34.30786 -93.14381 36876 ft 488 kts 39°
2026-05-05 03:42 34.34922 -93.07863 36871 ft 488 kts 39°
2026-05-05 03:42 34.39056 -93.01342 36872 ft 488 kts 39°
2026-05-05 03:43 34.43161 -92.94855 36863 ft 489 kts 39°
2026-05-05 03:43 34.47296 -92.88311 36885 ft 490 kts 39°
2026-05-05 03:44 34.51432 -92.81749 36873 ft 490 kts 39°
2026-05-05 03:44 34.55561 -92.75187 36869 ft 489 kts 39°
2026-05-05 03:45 34.59683 -92.68623 36878 ft 488 kts 39°
2026-05-05 03:45 34.63794 -92.62065 36885 ft 488 kts 39°
2026-05-05 03:46 34.67897 -92.55509 36889 ft 487 kts 39°
2026-05-05 03:46 34.71986 -92.48963 36911 ft 486 kts 39°
2026-05-05 03:47 34.76067 -92.42418 36887 ft 485 kts 39°
2026-05-05 03:47 34.80138 -92.35876 36892 ft 484 kts 39°
2026-05-05 03:48 34.84200 -92.29337 36881 ft 484 kts 39°
2026-05-05 03:48 34.88250 -92.22806 36886 ft 483 kts 39°
2026-05-05 03:49 34.92261 -92.16325 36882 ft 482 kts 39°
2026-05-05 03:49 34.96291 -92.09802 36875 ft 481 kts 39°
2026-05-05 03:50 35.00309 -92.03288 36878 ft 481 kts 39°
2026-05-05 03:50 35.04327 -91.96762 36877 ft 481 kts 39°
2026-05-05 03:51 35.08343 -91.90226 36896 ft 481 kts 39°
2026-05-05 03:51 35.12358 -91.83681 36864 ft 482 kts 39°
2026-05-05 03:52 35.16371 -91.77125 36896 ft 482 kts 39°
2026-05-05 03:52 35.20379 -91.70563 36899 ft 482 kts 39°
2026-05-05 03:53 35.24381 -91.63987 36943 ft 482 kts 39°
2026-05-05 03:53 35.28391 -91.57395 36900 ft 483 kts 39°
2026-05-05 03:54 35.32397 -91.50800 36915 ft 482 kts 39°
2026-05-05 03:54 35.36391 -91.44211 36885 ft 482 kts 39°
2026-05-05 03:55 35.39706 -91.38733 36875 ft 481 kts 39°
2026-05-05 03:55 35.43680 -91.32158 36887 ft 479 kts 39°
2026-05-05 03:56 35.47641 -91.25590 36881 ft 478 kts 39°
2026-05-05 03:56 35.51592 -91.19036 36917 ft 478 kts 38°
2026-05-05 03:57 35.55534 -91.12477 36904 ft 477 kts 38°
2026-05-05 03:57 35.59461 -91.05925 36880 ft 476 kts 38°
2026-05-05 03:58 35.63373 -90.99389 36876 ft 474 kts 38°
2026-05-05 03:58 35.67274 -90.92861 36876 ft 473 kts 38°
2026-05-05 03:59 35.71140 -90.86381 36879 ft 472 kts 38°
2026-05-05 03:59 35.75020 -90.79866 36880 ft 472 kts 38°
2026-05-05 04:00 35.78906 -90.73335 36906 ft 474 kts 37°
2026-05-05 04:00 35.82801 -90.66769 36885 ft 475 kts 37°
2026-05-05 04:01 35.86701 -90.60182 36861 ft 476 kts 37°
2026-05-05 04:01 35.90661 -90.53684 36854 ft 472 kts 36°
2026-05-05 04:02 35.94717 -90.47313 36853 ft 472 kts 35°
2026-05-05 04:02 35.98782 -90.40938 36861 ft 473 kts 35°
2026-05-05 04:03 36.02840 -90.34519 36865 ft 475 kts 36°
2026-05-05 04:03 36.06893 -90.28073 36861 ft 475 kts 36°
2026-05-05 04:04 36.10945 -90.21608 36867 ft 475 kts 36°
2026-05-05 04:04 36.14994 -90.15138 36874 ft 475 kts 36°
2026-05-05 04:05 36.19035 -90.08668 36880 ft 475 kts 36°
2026-05-05 04:05 36.23071 -90.02197 36879 ft 474 kts 36°
2026-05-05 04:06 36.27100 -89.95730 36869 ft 475 kts 38°
2026-05-05 04:06 36.31116 -89.89285 36857 ft 475 kts 38°
2026-05-05 04:07 36.35143 -89.82783 36845 ft 475 kts 38°
2026-05-05 04:07 36.39170 -89.76269 36842 ft 475 kts 38°
2026-05-05 04:08 36.43192 -89.69756 36841 ft 476 kts 38°
2026-05-05 04:08 36.47215 -89.63231 36843 ft 476 kts 38°
2026-05-05 04:09 36.51238 -89.56697 36871 ft 476 kts 39°
2026-05-05 04:09 36.55269 -89.50136 36850 ft 477 kts 39°
2026-05-05 04:10 36.59298 -89.43563 36842 ft 478 kts 39°
2026-05-05 04:10 36.63324 -89.36982 36851 ft 478 kts 40°
2026-05-05 04:11 36.67353 -89.30385 36841 ft 479 kts 40°
2026-05-05 04:11 36.71381 -89.23776 36843 ft 479 kts 40°
2026-05-05 04:12 36.75414 -89.17166 36882 ft 479 kts 41°
2026-05-05 04:12 36.79439 -89.10534 36849 ft 479 kts 42°
2026-05-05 04:13 36.83453 -89.03896 36850 ft 479 kts 42°
2026-05-05 04:13 36.87461 -88.97263 36854 ft 478 kts 42°
2026-05-05 04:14 36.91461 -88.90635 36863 ft 477 kts 42°
2026-05-05 04:14 36.95454 -88.84008 36883 ft 477 kts 43°
2026-05-05 04:15 36.99434 -88.77390 36916 ft 476 kts 43°
2026-05-05 04:15 37.03413 -88.70760 36880 ft 476 kts 43°
2026-05-05 04:16 37.07378 -88.64138 36866 ft 475 kts 43°
2026-05-05 04:16 37.11328 -88.57530 36855 ft 474 kts 43°
2026-05-05 04:17 37.15266 -88.50928 36853 ft 472 kts 43°
2026-05-05 04:17 37.19195 -88.44331 36852 ft 472 kts 43°
2026-05-05 04:18 37.21163 -88.41025 36625 ft 473 kts 43°
2026-05-05 04:18 37.23114 -88.37737 36375 ft 468 kts 43°
2026-05-05 04:18 37.25036 -88.34503 36079 ft 471 kts 44°
2026-05-05 04:18 37.27002 -88.31192 35700 ft 472 kts 44°
2026-05-05 04:19 37.28989 -88.27935 35324 ft 465 kts 40°
2026-05-05 04:19 37.31229 -88.25092 34961 ft 453 kts 32°
2026-05-05 04:19 37.33716 -88.22769 34602 ft 440 kts 23°
2026-05-05 04:19 37.36317 -88.20775 34268 ft 436 kts 23°
2026-05-05 04:20 37.38911 -88.18804 33908 ft 436 kts 24°
2026-05-05 04:20 37.41498 -88.16820 33506 ft 436 kts 24°
2026-05-05 04:20 37.44094 -88.14807 33121 ft 442 kts 25°
2026-05-05 04:20 37.46720 -88.12752 32864 ft 446 kts 25°
2026-05-05 04:21 37.52027 -88.08572 32870 ft 451 kts 25°
2026-05-05 04:21 37.57329 -88.04381 32139 ft 448 kts 26°
2026-05-05 04:22 37.59945 -88.02310 31742 ft 442 kts 26°
2026-05-05 04:22 37.62530 -88.00265 31474 ft 436 kts 26°
2026-05-05 04:22 37.65100 -87.98235 31183 ft 438 kts 26°
2026-05-05 04:22 37.67717 -87.96173 30968 ft 449 kts 26°
2026-05-05 04:23 37.73012 -87.91985 30847 ft 446 kts 27°
2026-05-05 04:23 37.78315 -87.87780 30856 ft 457 kts 27°
2026-05-05 04:24 37.83751 -87.83463 30848 ft 463 kts 27°
2026-05-05 04:25 37.91935 -87.76946 30841 ft 463 kts 27°
2026-05-05 04:25 37.97450 -87.72764 30835 ft 461 kts 25°
2026-05-05 04:26 38.03038 -87.68800 30835 ft 461 kts 24°
2026-05-05 04:26 38.08637 -87.64823 30832 ft 461 kts 25°
2026-05-05 04:27 38.14226 -87.60805 30833 ft 462 kts 25°
2026-05-05 04:27 38.19773 -87.56792 30836 ft 463 kts 25°
2026-05-05 04:28 38.25372 -87.52732 30826 ft 464 kts 25°
2026-05-05 04:28 38.30992 -87.48680 30827 ft 465 kts 24°
2026-05-05 04:29 38.36621 -87.44591 30545 ft 469 kts 25°
2026-05-05 04:29 38.39460 -87.42523 29936 ft 468 kts 25°
2026-05-05 04:29 38.42238 -87.40488 30012 ft 459 kts 25°
2026-05-05 04:29 38.45029 -87.38450 29835 ft 466 kts 25°
2026-05-05 04:30 38.47868 -87.36380 29555 ft 472 kts 25°
2026-05-05 04:30 38.50715 -87.34299 29271 ft 471 kts 25°
2026-05-05 04:30 38.53554 -87.32219 28994 ft 470 kts 25°
2026-05-05 04:30 38.56397 -87.30135 28727 ft 472 kts 25°
2026-05-05 04:31 38.59246 -87.28046 28141 ft 472 kts 25°
2026-05-05 04:31 38.62102 -87.25950 27231 ft 473 kts 25°
2026-05-05 04:31 38.64956 -87.23854 26305 ft 473 kts 25°
2026-05-05 04:31 38.67806 -87.21750 25487 ft 472 kts 26°
2026-05-05 04:32 38.70623 -87.19654 24867 ft 466 kts 26°
2026-05-05 04:32 38.73419 -87.17567 24201 ft 462 kts 26°
2026-05-05 04:32 38.76182 -87.15506 23564 ft 458 kts 26°
2026-05-05 04:32 38.78919 -87.13466 22843 ft 454 kts 26°
2026-05-05 04:33 38.81639 -87.11437 22136 ft 449 kts 26°
2026-05-05 04:33 38.84321 -87.09435 21502 ft 444 kts 26°
2026-05-05 04:33 38.86980 -87.07450 20881 ft 441 kts 26°
2026-05-05 04:33 38.89621 -87.05476 20226 ft 437 kts 26°
2026-05-05 04:34 38.92247 -87.03514 19579 ft 439 kts 26°
2026-05-05 04:34 38.94891 -87.01537 18947 ft 439 kts 26°
2026-05-05 04:34 38.97519 -86.99591 18457 ft 432 kts 25°
2026-05-05 04:34 39.00121 -86.97710 18073 ft 424 kts 25°
2026-05-05 04:35 39.02673 -86.95880 17818 ft 422 kts 25°
2026-05-05 04:35 39.05274 -86.94017 17471 ft 432 kts 25°
2026-05-05 04:35 39.07895 -86.92128 17063 ft 431 kts 25°
2026-05-05 04:35 39.10499 -86.90241 16680 ft 428 kts 25°
2026-05-05 04:36 39.13073 -86.88330 16288 ft 427 kts 27°
2026-05-05 04:36 39.15618 -86.86352 15902 ft 426 kts 27°
2026-05-05 04:36 39.18146 -86.84358 15522 ft 425 kts 27°
2026-05-05 04:36 39.20663 -86.82377 15132 ft 424 kts 27°
2026-05-05 04:37 39.23177 -86.80413 14751 ft 422 kts 27°
2026-05-05 04:37 39.25690 -86.78452 14365 ft 421 kts 27°
2026-05-05 04:37 39.28144 -86.76376 13985 ft 421 kts 31°
2026-05-05 04:37 39.30520 -86.74181 13604 ft 420 kts 32°
2026-05-05 04:38 39.32864 -86.71971 13193 ft 414 kts 32°
2026-05-05 04:38 39.35187 -86.69804 12787 ft 408 kts 32°
2026-05-05 04:38 39.37496 -86.67676 12400 ft 408 kts 31°
2026-05-05 04:38 39.39745 -86.65426 12003 ft 409 kts 39°
2026-05-05 04:39 39.41660 -86.62730 11632 ft 405 kts 51°
2026-05-05 04:39 39.43210 -86.59792 11256 ft 386 kts 54°
2026-05-05 04:39 39.44667 -86.56960 10909 ft 370 kts 53°
2026-05-05 04:39 39.46081 -86.54256 10552 ft 356 kts 53°
2026-05-05 04:40 39.47461 -86.51657 10221 ft 344 kts 53°
2026-05-05 04:40 39.48809 -86.49154 9896 ft 334 kts 51°
2026-05-05 04:40 39.50227 -86.46809 9549 ft 330 kts 48°
2026-05-05 04:40 39.51689 -86.44522 9187 ft 330 kts 47°
2026-05-05 04:41 39.53158 -86.42237 8835 ft 330 kts 47°
2026-05-05 04:41 39.54600 -86.39977 8456 ft 330 kts 48°
2026-05-05 04:41 39.56069 -86.37658 8086 ft 326 kts 48°
2026-05-05 04:41 39.57487 -86.35404 7730 ft 320 kts 48°
2026-05-05 04:42 39.58890 -86.33166 7399 ft 319 kts 48°
2026-05-05 04:42 39.60258 -86.30982 7049 ft 313 kts 48°
2026-05-05 04:42 39.61599 -86.28820 6807 ft 302 kts 49°
2026-05-05 04:42 39.62890 -86.26720 6601 ft 296 kts 49°
2026-05-05 04:43 39.64164 -86.24645 6433 ft 292 kts 49°
2026-05-05 04:43 39.65407 -86.22620 6268 ft 282 kts 49°
2026-05-05 04:43 39.66611 -86.20657 6049 ft 273 kts 49°
2026-05-05 04:43 39.67871 -86.18871 5790 ft 264 kts 39°
2026-05-05 04:44 39.69209 -86.17279 5523 ft 258 kts 37°
2026-05-05 04:44 39.70099 -86.16226 5343 ft 254 kts 37°
2026-05-05 04:44 39.71366 -86.14706 5100 ft 249 kts 37°
2026-05-05 04:44 39.72604 -86.13203 4875 ft 243 kts 37°
2026-05-05 04:45 39.73858 -86.11774 4605 ft 237 kts 26°
2026-05-05 04:45 39.75295 -86.10972 4327 ft 214 kts 355°
2026-05-05 04:45 39.76676 -86.11028 4105 ft 188 kts 332°
2026-05-05 04:45 39.77799 -86.11616 3888 ft 162 kts 308°
2026-05-05 04:46 39.78603 -86.12564 3723 ft 154 kts 295°
2026-05-05 04:46 39.79202 -86.13667 3491 ft 146 kts 283°
2026-05-05 04:46 39.79561 -86.14861 3315 ft 137 kts 270°
2026-05-05 04:46 39.79664 -86.16016 3139 ft 120 kts 260°
2026-05-05 04:47 39.79589 -86.17036 3026 ft 106 kts 253°
2026-05-05 04:47 39.79359 -86.18004 2876 ft 121 kts 245°
2026-05-05 04:47 39.78943 -86.18962 2744 ft 122 kts 233°
2026-05-05 04:47 39.78383 -86.19782 2554 ft 119 kts 227°
2026-05-05 04:48 39.77810 -86.20514 2399 ft 113 kts 228°
2026-05-05 04:48 39.77235 -86.21247 2251 ft 119 kts 227°
2026-05-05 04:48 39.76632 -86.22017 2098 ft 123 kts 227°
2026-05-05 04:48 39.76013 -86.22808 1924 ft 125 kts 226°
2026-05-05 04:49 39.75391 -86.23598 1757 ft 125 kts 226°
2026-05-05 04:49 39.74755 -86.24407 1588 ft 134 kts 226°
2026-05-05 04:49 39.74068 -86.25285 1417 ft 144 kts 224°
2026-05-05 04:49 39.73355 -86.26194 1236 ft 144 kts 224°
2026-05-05 04:50 39.72648 -86.27106 1017 ft 143 kts 223°
2026-05-05 04:50 39.71934 -86.28011 809 ft 143 kts 224°
2026-05-05 04:50 39.71294 -86.28825 786 ft 106 kts 224°
2026-05-05 04:50 39.70976 -86.29224 784 ft 35 kts 224°
2026-05-05 04:51 39.70873 -86.29461 783 ft 29 kts 253°
2026-05-05 04:51 39.70846 -86.29632 782 ft 13 kts 289°
2026-05-05 04:51 39.70910 -86.29619 781 ft 12 kts 46°
2026-05-05 04:51 39.70975 -86.29534 781 ft 14 kts 45°
2026-05-05 04:52 39.71048 -86.29440 781 ft 16 kts 44°
2026-05-05 04:52 39.71159 -86.29386 781 ft 19 kts
2026-05-05 04:52 39.71291 -86.29397 781 ft 19 kts 354°
2026-05-05 04:52 39.71379 -86.29353 781 ft 14 kts 50°
2026-05-05 04:53 39.71441 -86.29259 781 ft 13 kts 50°
2026-05-05 04:53 39.71500 -86.29168 781 ft 13 kts 50°
2026-05-05 04:53 39.71566 -86.29096 781 ft 13 kts
2026-05-05 04:53 39.71637 -86.29157 781 ft 12 kts 321°
2026-05-05 04:54 39.71703 -86.29227 781 ft 12 kts 319°
2026-05-05 04:54 39.71766 -86.29298 781 ft 12 kts 320°
2026-05-05 04:54 39.71830 -86.29371 781 ft 14 kts 313°
2026-05-05 04:54 39.71893 -86.29470 781 ft 14 kts 309°
2026-05-05 04:55 39.71953 -86.29566 781 ft 14 kts 309°
2026-05-05 04:55 39.72011 -86.29659 781 ft 13 kts 306°
2026-05-05 04:55 39.71995 -86.29756 780 ft 12 kts 220°
2026-05-05 04:55 39.71930 -86.29825 780 ft 12 kts 219°
2026-05-05 04:56 39.71866 -86.29892 781 ft 12 kts 219°
2026-05-05 04:56 39.71804 -86.29957 780 ft 11 kts 219°
2026-05-05 04:56 39.71735 -86.29951 780 ft 11 kts 137°
2026-05-05 04:56 39.71699 -86.29887 780 ft 4 kts 124°
2026-05-05 04:57 39.71691 -86.29872 780 ft 0 kts 124°